Location: Newark
(7.0858°N, 171.3717°E)
Time: 20:20:12
(UTC+00:00)

OTV 5 (USA 277) - Visible Passes

Search period start: 24 August 2019 00:00
Search period end: 03 September 2019 00:00
Orbit: 305 x 329 km, 54.5° (Epoch: 20 August)

Date Brightness Start Highest point End Pass type
(mag) Time Alt. Az. Time Alt. Az. Time Alt. Az.
24 Aug ? 07:12:28 10° WSW 07:14:30 18° NW 07:16:30 10° N visible
25 Aug ? 17:11:17 36° NNE 17:11:51 42° ENE 17:14:23 10° SE visible
26 Aug ? 17:28:06 14° S 17:28:06 14° S 17:28:37 10° S visible
